User: anonymous   Login
Location: Unspecified
(0.0000°N, 0.0000°E)
Time: 00:18:58
(UTC+00:00)
Language:

TIANWANG 1C (TW-1C) - Orbit

View from above orbital plane
View from above orbital plane
View from above satellite
View from above satellite

Ground track
Ground track

The orbit data is extracted from the following two-line orbital elements,

1 40926U 15051B   17231.87149831  .00006405  00000-0  14473-3 0  9995
2 40926  97.2258 270.9541 0009321 302.9189 109.8564 15.43484655106747
Epoch (UTC): 19 August 2017 20:54:57
Eccentricity: 0.0009321
inclination: 97.2258°
perigee height: 429 km
apogee height: 442 km
right ascension of ascending node: 270.9541°
argument of perigee: 302.9189°
revolutions per day: 15.43484655
mean anomaly at epoch: 109.8564°
orbit number at epoch: 10674

The dashed part of the orbit path shows where the satellite is in the earth's shadow,  

DLR